�N����,����,�~����,�C��,���x,�C��,����,���ϕ���,�ő�u�ԕ���,�ő厞����,���˗�,�I�_���x,�n�����x,�ő啗���N��,DTYPE
"20/08/27","00:10",0.0,25.3,79.0,1004.8,287.2,0.8,2.0,330.6,0.00,21.4,27.4,"00:00:24",1
"20/08/27","00:20",0.0,25.2,78.7,1004.8,283.0,0.6,1.3,345.3,0.00,21.3,27.6,"00:10:08",1
"20/08/27","00:30",0.0,25.2,78.7,1004.8,316.4,1.0,1.7,346.3,0.00,21.3,27.6,"00:24:24",1
"20/08/27","00:40",0.0,25.3,78.7,1005.0,302.3,1.0,1.8,342.8,0.00,21.4,27.3,"00:39:28",1
"20/08/27","00:50",0.0,25.4,78.7,1005.0,278.3,0.6,1.4,331.7,0.00,21.5,27.2,"00:49:36",1
"20/08/27","01:00",0.0,25.6,78.4,1004.8,296.9,1.0,1.9,348.9,0.00,21.6,27.3,"00:52:00",1
"20/08/27","01:10",0.0,25.6,78.4,1004.5,281.8,1.0,2.2,241.4,0.00,21.6,27.1,"01:06:56",1
"20/08/27","01:20",0.0,25.7,78.4,1004.5,260.0,0.8,1.7,302.0,0.00,21.7,27.1,"01:17:20",1
"20/08/27","01:30",0.0,25.5,78.9,1004.3,306.9,1.0,1.9,340.4,0.00,21.6,27.2,"01:27:04",1
"20/08/27","01:40",0.0,25.6,79.4,1003.8,296.3,0.8,1.8,14.5,0.00,21.8,27.3,"01:37:28",1
"20/08/27","01:50",0.0,25.5,79.7,1004.1,287.5,0.7,1.9,339.7,0.00,21.8,26.9,"01:40:24",1
"20/08/27","02:00",0.0,25.6,80.3,1003.8,297.9,0.8,1.6,1.2,0.00,22.0,27.1,"01:59:04",1
"20/08/27","02:10",0.0,25.4,80.8,1004.3,289.0,1.0,1.8,295.4,0.00,21.9,27.0,"02:04:16",1
"20/08/27","02:20",0.0,25.4,81.3,1004.3,315.3,0.8,1.4,344.2,0.00,22.0,26.9,"02:15:20",1
"20/08/27","02:30",0.0,25.6,81.7,1004.1,274.6,0.8,1.7,246.2,0.00,22.3,26.7,"02:29:04",1
"20/08/27","02:40",0.0,25.6,81.7,1004.3,346.8,0.7,2.1,346.0,0.00,22.3,26.9,"02:32:32",1
"20/08/27","02:50",0.0,25.5,82.1,1004.5,309.2,0.6,1.0,322.4,0.00,22.3,26.9,"02:48:48",1
"20/08/27","03:00",0.0,25.5,82.5,1004.5,298.7,0.6,1.2,354.1,0.00,22.3,27.0,"02:50:08",1
"20/08/27","03:10",0.0,25.4,82.7,1004.1,306.3,0.6,1.0,328.1,0.00,22.3,27.0,"03:06:24",1
"20/08/27","03:20",0.0,25.5,83.0,1004.3,310.4,0.5,1.1,308.0,0.00,22.4,27.0,"03:18:48",1
"20/08/27","03:30",0.0,25.2,83.0,1004.3,297.7,0.1,0.5,343.2,0.00,22.1,26.9,"03:20:16",1
"20/08/27","03:40",0.0,25.0,83.4,1004.1,307.0,0.5,0.8,310.4,0.00,22.0,26.8,"03:32:40",1
"20/08/27","03:50",0.0,25.1,84.0,1003.8,312.0,0.7,1.2,341.0,0.00,22.2,27.0,"03:45:20",1
"20/08/27","04:00",0.0,25.2,84.4,1003.6,309.9,1.0,1.7,307.3,0.00,22.4,27.0,"03:56:40",1
"20/08/27","04:10",0.0,25.2,84.6,1003.4,315.1,0.7,1.1,308.3,0.00,22.5,26.9,"04:01:20",1
"20/08/27","04:20",0.0,25.2,85.0,1003.6,315.8,0.7,1.2,354.7,0.00,22.5,26.9,"04:12:40",1
"20/08/27","04:30",0.0,25.2,85.2,1003.8,303.2,0.6,1.0,319.5,0.00,22.6,26.6,"04:23:44",1
"20/08/27","04:40",0.0,25.3,85.4,1003.6,286.6,0.5,0.8,272.6,0.00,22.7,26.8,"04:31:20",1
"20/08/27","04:50",0.0,25.5,85.7,1003.6,332.1,1.0,1.6,336.7,0.00,23.0,26.8,"04:45:28",1
"20/08/27","05:00",0.0,25.6,85.9,1003.8,336.4,0.7,1.2,338.4,0.00,23.1,26.7,"04:58:48",1
"20/08/27","05:10",0.0,25.6,86.0,1003.8,309.2,0.6,1.2,327.8,0.00,23.1,26.6,"05:01:52",1
"20/08/27","05:20",0.0,25.6,86.2,1003.8,270.7,0.6,0.9,272.3,0.00,23.2,26.9,"05:10:56",1
"20/08/27","05:30",0.0,25.6,86.3,1004.3,310.8,0.8,1.7,327.7,0.00,23.2,26.8,"05:29:52",1
"20/08/27","05:40",0.0,25.7,86.4,1004.3,339.8,0.8,1.6,308.7,0.00,23.3,26.9,"05:35:12",1
"20/08/27","05:50",0.0,25.8,86.4,1004.5,331.7,0.6,1.4,332.1,0.00,23.4,26.7,"05:45:52",1
"20/08/27","06:00",0.0,25.9,86.5,1004.5,257.1,0.6,0.9,249.4,0.00,23.5,26.6,"05:53:12",1
"20/08/27","06:10",0.0,26.1,86.4,1004.8,323.2,0.7,1.6,314.2,0.00,23.7,26.8,"06:04:24",1
"20/08/27","06:20",0.0,26.2,86.2,1004.8,316.8,0.5,1.0,314.7,0.00,23.8,26.7,"06:10:08",1
"20/08/27","06:30",0.0,26.3,86.2,1004.8,315.7,0.8,1.3,355.2,0.00,23.8,26.7,"06:20:24",1
"20/08/27","06:40",0.0,26.3,86.2,1005.2,285.4,0.6,0.9,311.3,0.00,23.8,27.0,"06:36:48",1
"20/08/27","06:50",0.0,26.4,86.1,1004.8,297.4,0.7,1.1,333.7,0.00,23.9,27.1,"06:47:52",1
"20/08/27","07:00",0.0,26.5,86.1,1005.0,343.5,0.7,1.1,338.7,0.00,24.0,26.9,"06:52:48",1
"20/08/27","07:10",0.0,26.6,86.2,1005.0,334.1,0.8,1.6,317.1,0.00,24.1,27.0,"07:08:40",1
"20/08/27","07:20",0.0,26.7,86.3,1004.8,285.6,0.6,0.9,261.6,0.01,24.3,26.7,"07:10:08",1
"20/08/27","07:30",0.0,27.0,86.4,1004.5,276.9,0.8,1.1,255.1,0.03,24.6,27.1,"07:22:00",1
"20/08/27","07:40",0.0,27.7,86.1,1004.3,284.0,0.7,1.9,320.4,0.10,25.2,27.0,"07:32:00",1
"20/08/27","07:50",0.0,28.3,84.0,1004.8,108.1,1.1,2.6,108.0,0.09,25.4,27.3,"07:40:40",1
"20/08/27","08:00",0.0,28.6,81.5,1004.5,99.9,1.6,3.7,94.5,0.06,25.2,27.3,"07:54:16",1
"20/08/27","08:10",0.0,28.7,79.9,1004.5,110.7,1.7,3.7,112.0,0.05,24.9,27.2,"08:05:44",1
"20/08/27","08:20",0.0,28.5,79.4,1004.5,132.5,1.2,2.5,124.8,0.02,24.6,27.5,"08:15:20",1
"20/08/27","08:30",0.0,28.7,79.4,1004.5,120.7,1.2,2.7,115.6,0.05,24.8,27.5,"08:20:02",1
"20/08/27","08:40",0.0,28.7,78.9,1005.0,98.4,1.8,4.3,112.8,0.03,24.7,27.6,"08:30:02",1
"20/08/27","08:50",0.0,28.6,79.0,1004.8,106.9,1.8,4.4,112.5,0.03,24.6,27.7,"08:40:56",1
"20/08/27","09:00",0.0,28.7,79.2,1004.8,113.0,1.2,2.9,104.6,0.05,24.8,27.7,"08:50:08",1
"20/08/27","09:10",0.0,29.4,79.0,1004.5,92.5,1.1,2.5,117.5,0.19,25.4,27.8,"09:04:00",1
"20/08/27","09:20",0.0,29.6,78.0,1004.3,103.3,1.6,3.1,96.2,0.20,25.4,28.0,"09:12:40",1
"20/08/27","09:30",0.0,29.5,77.2,1004.3,106.9,1.1,2.4,109.4,0.07,25.1,28.2,"09:21:36",1
"20/08/27","09:40",0.0,29.4,77.5,1004.3,97.4,1.3,3.4,120.1,0.06,25.1,28.1,"09:39:20",1
"20/08/27","09:50",0.0,30.0,76.3,1004.8,105.4,1.5,3.3,114.0,0.22,25.4,28.3,"09:42:32",1
"20/08/27","10:00",0.0,29.8,76.0,1005.0,100.9,2.1,4.4,106.6,0.12,25.2,28.6,"09:58:48",1
"20/08/27","10:10",0.0,29.8,76.0,1004.5,129.5,1.7,3.5,109.1,0.12,25.2,28.5,"10:02:00",1
"20/08/27","10:20",0.0,30.1,75.6,1004.5,122.6,1.6,3.2,78.3,0.18,25.4,28.4,"10:12:48",1
"20/08/27","10:30",0.0,30.1,74.9,1004.8,119.2,1.7,4.8,96.7,0.14,25.2,28.7,"10:24:56",1
"20/08/27","10:40",0.0,30.0,75.0,1005.0,104.3,1.3,3.3,123.6,0.12,25.1,29.0,"10:35:28",1
"20/08/27","10:50",0.0,30.1,74.8,1004.8,131.9,1.6,3.4,118.3,0.12,25.2,28.9,"10:45:28",1
"20/08/27","11:00",0.0,30.4,73.3,1005.2,119.4,1.6,3.2,109.4,0.17,25.1,29.1,"10:56:00",1
"20/08/27","11:10",0.0,30.7,72.7,1004.8,139.7,1.2,2.8,118.4,0.14,25.3,29.2,"11:08:16",1
"20/08/27","11:20",0.0,31.4,71.6,1005.0,135.3,1.3,3.3,109.3,0.31,25.7,29.2,"11:10:48",1
"20/08/27","11:30",0.0,31.7,68.9,1005.0,136.6,1.6,4.1,105.0,0.25,25.3,29.4,"11:21:20",1
"20/08/27","11:40",0.0,31.9,68.6,1005.2,116.8,1.8,4.1,113.3,0.26,25.4,29.8,"11:38:40",1
"20/08/27","11:50",0.0,32.7,65.4,1005.0,114.7,2.2,4.9,112.8,0.42,25.4,29.9,"11:45:36",1
"20/08/27","12:00",0.0,32.6,65.6,1005.2,100.3,1.3,3.5,101.0,0.19,25.4,30.1,"11:52:24",1
"20/08/27","12:10",0.0,32.2,66.4,1005.2,94.4,2.0,4.1,110.3,0.22,25.2,30.1,"12:04:24",1
"20/08/27","12:20",0.0,32.2,66.9,1005.0,95.9,2.0,5.0,107.6,0.20,25.3,30.4,"12:12:24",1
"20/08/27","12:30",0.0,32.0,65.7,1004.8,105.1,1.7,3.7,110.6,0.14,24.8,30.4,"12:27:04",1
"20/08/27","12:40",0.0,31.9,65.3,1004.8,119.2,2.0,4.9,139.1,0.16,24.6,30.3,"12:34:16",1
"20/08/27","12:50",0.0,31.7,65.5,1004.3,92.7,2.1,4.1,64.2,0.10,24.5,30.3,"12:47:20",1
"20/08/27","13:00",0.0,31.6,66.8,1004.1,103.7,2.0,4.3,110.2,0.08,24.7,30.3,"12:53:20",1
"20/08/27","13:10",0.0,32.6,66.2,1004.3,94.7,1.3,3.9,102.1,0.31,25.5,30.4,"13:06:32",1
"20/08/27","13:20",0.0,32.9,63.6,1004.5,109.6,2.2,3.6,122.2,0.35,25.1,30.6,"13:16:00",1
"20/08/27","13:30",0.0,33.4,62.5,1005.0,99.8,1.6,3.1,107.0,0.43,25.3,30.8,"13:26:40",1
"20/08/27","13:40",0.0,33.1,61.1,1005.0,111.8,1.7,4.9,108.2,0.21,24.6,30.9,"13:39:04",1
"20/08/27","13:50",0.0,32.3,63.8,1004.5,79.1,1.3,2.6,23.6,0.05,24.6,30.9,"13:43:20",1
"20/08/27","14:00",0.0,32.2,64.5,1004.3,86.3,1.5,3.2,89.4,0.10,24.7,30.9,"13:50:40",1
"20/08/27","14:10",0.0,32.6,63.5,1003.6,80.8,1.5,3.3,34.6,0.17,24.8,31.0,"14:07:04",1
"20/08/27","14:20",0.0,32.3,63.5,1003.8,79.8,1.5,3.1,107.0,0.11,24.5,31.0,"14:18:24",1
"20/08/27","14:30",0.0,32.5,62.8,1003.6,105.0,2.0,4.1,109.0,0.13,24.5,31.0,"14:21:20",1
"20/08/27","14:40",0.0,32.3,62.8,1003.8,93.9,1.6,3.1,77.5,0.09,24.3,31.1,"14:37:28",1
"20/08/27","14:50",0.0,31.9,63.9,1003.6,116.5,2.2,4.2,105.3,0.01,24.3,30.8,"14:48:00",1
"20/08/27","15:00",0.0,31.8,64.8,1003.6,109.6,2.0,4.1,102.2,0.00,24.4,30.7,"14:57:20",1
"20/08/27","15:10",0.0,31.5,65.0,1003.1,115.9,1.7,4.1,106.3,0.01,24.2,30.5,"15:05:20",1
"20/08/27","15:20",0.0,31.3,65.1,1003.4,118.8,1.5,3.2,110.4,0.00,24.0,30.6,"15:10:48",1
"20/08/27","15:30",0.0,31.1,65.2,1002.9,129.7,1.5,2.8,148.5,0.01,23.8,30.5,"15:26:40",1
"20/08/27","15:40",0.0,31.1,65.6,1002.9,135.2,1.3,3.5,126.3,0.00,23.9,30.2,"15:38:56",1
"20/08/27","15:50",0.0,30.9,65.8,1003.1,151.9,2.0,4.2,132.9,0.00,23.8,30.2,"15:47:20",1
"20/08/27","16:00",0.0,30.9,66.3,1003.1,155.1,2.0,5.6,110.1,0.01,23.9,30.0,"15:59:52",1
"20/08/27","16:10",0.0,30.7,68.0,1002.9,118.3,1.5,4.2,144.8,0.04,24.2,30.0,"16:04:08",1
"20/08/27","16:20",0.0,30.8,68.1,1002.6,131.1,1.3,2.8,145.1,0.05,24.3,30.0,"16:15:04",1
"20/08/27","16:30",0.0,31.0,68.2,1003.1,149.9,1.2,2.8,113.2,0.07,24.5,29.7,"16:25:28",1
"20/08/27","16:40",0.0,31.1,68.0,1003.1,154.4,1.0,2.2,183.5,0.09,24.5,30.0,"16:35:52",1
"20/08/27","16:50",0.0,31.3,66.6,1003.6,168.4,1.5,3.4,123.0,0.10,24.4,29.8,"16:47:44",1
"20/08/27","17:00",0.0,31.4,67.1,1003.8,165.1,1.2,2.2,212.3,0.06,24.6,29.8,"16:53:36",1
"20/08/27","17:10",0.0,31.0,68.5,1003.8,148.8,1.0,2.2,218.1,0.04,24.6,29.8,"17:00:48",1
"20/08/27","17:20",0.0,30.6,67.8,1003.8,125.8,1.0,2.4,126.8,0.00,24.0,29.7,"17:19:36",1
"20/08/27","17:30",0.0,30.6,67.2,1003.8,120.0,1.7,3.7,104.3,0.01,23.9,29.8,"17:22:00",1
"20/08/27","17:40",0.0,30.5,67.4,1002.9,135.4,1.3,3.7,106.7,0.01,23.8,29.7,"17:32:16",1
"20/08/27","17:50",0.0,30.3,68.0,1002.9,125.6,1.6,2.9,115.5,0.00,23.8,29.7,"17:40:08",1
"20/08/27","18:00",0.0,30.1,68.6,1002.9,120.7,1.6,3.6,130.5,0.00,23.7,29.5,"17:59:12",1
"20/08/27","18:10",0.0,30.0,69.0,1003.1,134.0,1.3,3.2,184.5,0.00,23.7,29.5,"18:08:40",1
"20/08/27","18:20",0.0,30.1,69.4,1003.1,110.7,1.1,2.2,99.9,0.00,23.9,29.3,"18:12:00",1
"20/08/27","18:30",0.0,30.0,69.8,1003.1,90.4,1.2,2.7,106.5,0.00,23.9,29.4,"18:28:32",1
"20/08/27","18:40",0.0,29.9,70.4,1003.1,81.7,1.1,2.8,19.1,0.00,24.0,29.3,"18:32:56",1
"20/08/27","18:50",0.0,29.7,71.2,1003.1,83.7,1.0,2.1,34.3,0.00,24.0,29.2,"18:43:12",1
"20/08/27","19:00",0.0,29.6,71.9,1003.4,90.7,1.2,2.8,111.7,0.00,24.0,29.0,"18:53:20",1
"20/08/27","19:10",0.0,29.4,72.5,1003.4,12.3,0.7,1.6,340.4,0.00,24.0,29.1,"19:04:16",1
"20/08/27","19:20",0.0,29.2,73.5,1003.8,27.2,0.7,2.4,119.9,0.00,24.0,28.9,"19:14:48",1
"20/08/27","19:30",0.0,29.0,74.2,1004.5,12.6,0.7,2.0,12.5,0.00,24.0,28.8,"19:27:20",1
"20/08/27","19:40",0.0,28.9,74.8,1004.3,43.4,0.3,1.7,25.5,0.00,24.0,28.6,"19:30:16",1
"20/08/27","19:50",0.0,28.9,75.1,1004.1,42.3,0.6,1.9,104.6,0.00,24.1,28.8,"19:42:40",1
"20/08/27","20:00",0.0,28.7,75.5,1004.5,1.7,0.6,1.7,334.7,0.00,24.0,28.7,"19:50:02",1
"20/08/27","20:10",0.0,28.6,76.0,1004.5,0.8,0.5,1.3,325.7,0.00,24.0,28.6,"20:00:08",1
"20/08/27","20:20",0.0,28.4,76.6,1004.5,357.7,0.6,1.6,6.5,0.00,23.9,28.4,"20:11:28",1
"20/08/27","20:30",0.0,28.4,77.0,1004.5,38.7,0.3,1.1,63.6,0.00,24.0,28.5,"20:27:44",1
"20/08/27","20:40",0.0,28.4,77.2,1004.3,20.6,0.7,2.1,40.2,0.00,24.1,28.2,"20:32:48",1
"20/08/27","20:50",0.0,28.1,77.7,1004.3,338.8,0.8,1.4,319.1,0.00,23.9,28.3,"20:44:00",1
"20/08/27","21:00",0.0,28.1,78.2,1004.8,340.2,0.6,1.1,304.7,0.00,24.0,28.4,"20:55:52",1
"20/08/27","21:10",0.0,28.0,78.6,1004.8,346.0,0.6,1.4,353.8,0.00,24.0,28.3,"21:00:56",1
"20/08/27","21:20",0.0,28.1,78.9,1005.0,358.0,0.5,1.2,322.0,0.00,24.1,28.2,"21:11:28",1
"20/08/27","21:30",0.0,28.0,79.2,1004.5,354.1,0.5,1.0,357.4,0.00,24.1,28.2,"21:20:16",1
"20/08/27","21:40",0.0,28.0,79.5,1004.8,19.7,0.6,2.1,9.1,0.00,24.2,28.2,"21:35:20",1
"20/08/27","21:50",0.0,27.9,79.6,1005.0,336.7,0.5,1.0,352.3,0.00,24.1,28.0,"21:49:52",1
"20/08/27","22:00",0.0,27.8,79.9,1005.0,341.5,0.7,1.3,349.9,0.00,24.1,28.1,"21:56:08",1
"20/08/27","22:10",0.0,27.6,80.2,1005.0,320.8,0.7,1.3,335.7,0.00,23.9,27.9,"22:01:20",1
"20/08/27","22:20",0.0,27.4,80.4,1005.0,302.6,0.6,1.0,318.6,0.00,23.8,27.9,"22:15:28",1
"20/08/27","22:30",0.0,27.1,80.9,1004.8,313.2,0.7,1.0,317.2,0.00,23.6,27.7,"22:24:00",1
"20/08/27","22:40",0.0,27.0,81.5,1005.2,282.8,0.6,1.3,254.6,0.00,23.6,27.8,"22:38:56",1
"20/08/27","22:50",0.0,26.9,82.1,1005.0,282.4,0.8,1.8,263.0,0.00,23.6,27.8,"22:46:40",1
"20/08/27","23:00",0.0,26.8,82.5,1005.2,304.0,0.7,1.2,239.0,0.00,23.6,27.5,"22:51:36",1
"20/08/27","23:10",0.0,26.6,82.9,1005.0,311.9,0.8,1.1,339.7,0.00,23.5,27.6,"23:02:08",1
"20/08/27","23:20",0.0,26.4,83.3,1005.5,311.1,0.5,1.1,313.1,0.00,23.4,27.7,"23:10:16",1
"20/08/27","23:30",0.0,26.4,83.9,1005.2,321.8,0.7,1.2,339.2,0.00,23.5,27.5,"23:28:40",1
"20/08/27","23:40",0.0,26.0,84.3,1005.0,292.6,0.5,1.1,339.0,0.00,23.2,27.6,"23:30:08",1
"20/08/27","23:50",0.0,25.8,84.7,1005.2,323.3,0.5,1.0,313.6,0.00,23.1,27.4,"23:44:08",1
"20/08/27","24:00",0.0,25.8,85.4,1005.0,325.5,0.8,1.7,320.9,0.00,23.2,27.3,"23:59:44",1
